Regional Weather Roundup
Issued by NWS

Home | Current Version | Previous Version | Text Only | Print | Product List | Glossary On
Versions: 1 2 3 4 5 6 7 8 9 10 11 12 13 14 15 16 17 18 19 20 21 22 23 24 25 26 27 28 29 30 31 32 33 34 35 36 37 38 39 40 41 42 43 44 45 46 47 48 49 50
213
ASUS43 KTOP 290759
RWRKS

WEATHER ROUNDUP FOR KANSAS
NATIONAL WEATHER SERVICE GOODLAND KS
300 AM CDT FRI APR 29 2016

NOTE:  "FAIR" INDICATES FEW OR NO CLOUDS BELOW 12,000 FEET WITH NO
SIGNIFICANT WEATHER AND/OR OBSTRUCTIONS TO VISIBILITY.

KSZ001>006-013>018-027>032-041>047-290900-
NORTHWEST KANSAS

CITY           SKY/WX    TMP DP  RH WIND       PRES   REMARKS
GOODLAND       LGT RAIN  40  39  97 E13       30.06F WCI  32
HAYS           CLOUDY    46  37  71 NE12      30.06R
HILL CITY      CLOUDY    47  43  86 NE7       30.09S
RUSSELL        CLOUDY    48  44  86 NE14      30.03F
$$

KSZ061>065-074>080-084>089-290900-
SOUTHWEST KANSAS

CITY           SKY/WX    TMP DP  RH WIND       PRES   REMARKS
DODGE CITY     TSTM      46  43  89 N25G32    29.95R
ELKHART          N/A     41  39  93 NE13        N/A
GARDEN CITY    RAIN      44  43  96 NE20G31   29.96F FOG
GREAT BEND     CLOUDY    48  39  71 E15       30.03R
LIBERAL        CLOUDY    48  45  87 NE17      29.93S THUNDER
$$

KSZ066>073-081>083-090>101-290900-
SOUTHEAST KANSAS

CITY           SKY/WX    TMP DP  RH WIND       PRES   REMARKS
CHANUTE        CLOUDY    54  45  71 NE15G24   30.02F
COFFEYVILLE    CLOUDY    56  50  80 NE17      29.97F
HUTCHINSON     LGT RAIN  50  48  93 E9        30.03R
MEDICINE LODGE   N/A     52  49  89 E14G22    29.91F
NEWTON         CLOUDY    48  43  81 E9        30.03F
PARSONS        MOCLDY    55  48  77 NE10G18   30.00F
WICHITA INTL   CLOUDY    53  46  77 NE18      29.99F
WICHITA JABRA  CLOUDY    51  46  83 NE14      30.00F
WINFIELD       CLOUDY    55  48  77 NE17G26   29.97F
$$

KSZ007>012-019>026-033>040-048>060-102>105-290900-
NORTHEAST KANSAS

CITY           SKY/WX    TMP DP  RH WIND       PRES   REMARKS
CONCORDIA      CLOUDY    48  41  76 NE10      30.10S
EMPORIA        CLOUDY    50  45  83 NE10      30.05F
LAWRENCE       LGT RAIN  49  46  90 N8        30.10R
MANHATTAN      CLOUDY    50  44  80 NE12      30.06F
OLATHE IND     CLOUDY    50  46  86 N7        30.10R
OLATHE EXE     CLOUDY    50  44  80 N3        30.09S
SALINA         LGT RAIN  51  46  83 NE9       30.04F
TOPEKA BILLARD LGT RAIN  50  46  86 N8        30.08F
TOPEKA FORBES  LGT RAIN  50  46  86 N13       30.04F
$$




USA.gov is the U.S. government's official web portal to all federal, state and local government web resources and services.